DLH648 UAAA-UACC

Flight info

Callsign DLH648
Flight time 1h 21m
Altitude 40000
Route ETEDA W333 BANOS
Aircraft A343/H-SDE2E3FGHIJ4J5M1RWXY/LB1D1

Departure

Time 2026-04-26 10:36
Airport Almaty International Airport (UAAA)

Arrival

Time 2026-04-26 11:57
Airport Nursultan Nazarbayev International Airport (UACC)
Time Latitude Longitude Altitude Speed Heading
2026-04-26 10:09 43.34971 77.01302 2230 ft 0 kts 246°
2026-04-26 10:25 43.34972 77.01306 2230 ft 3 kts 246°
2026-04-26 10:25 43.34983 77.01339 2224 ft 4 kts 248°
2026-04-26 10:25 43.34993 77.01372 2226 ft 3 kts 246°
2026-04-26 10:25 43.35004 77.01400 2225 ft 4 kts 219°
2026-04-26 10:26 43.35027 77.01411 2226 ft 4 kts 170°
2026-04-26 10:26 43.35052 77.01400 2225 ft 4 kts 153°
2026-04-26 10:26 43.35067 77.01389 2226 ft 0 kts 156°
2026-04-26 10:30 43.35066 77.01390 2226 ft 1 kts 156°
2026-04-26 10:30 43.35054 77.01397 2225 ft 3 kts 156°
2026-04-26 10:31 43.35031 77.01411 2229 ft 4 kts 156°
2026-04-26 10:31 43.35012 77.01422 2226 ft 0 kts 156°
2026-04-26 10:31 43.35012 77.01423 2226 ft 0 kts 155°
2026-04-26 10:31 43.35004 77.01427 2226 ft 2 kts 155°
2026-04-26 10:32 43.34986 77.01439 2227 ft 4 kts 155°
2026-04-26 10:32 43.34949 77.01462 2227 ft 8 kts 156°
2026-04-26 10:32 43.34890 77.01496 2225 ft 10 kts 162°
2026-04-26 10:32 43.34819 77.01485 2227 ft 11 kts 194°
2026-04-26 10:33 43.34741 77.01457 2228 ft 12 kts 195°
2026-04-26 10:33 43.34677 77.01448 2227 ft 9 kts 169°
2026-04-26 10:33 43.34608 77.01468 2227 ft 11 kts 169°
2026-04-26 10:33 43.34533 77.01502 2227 ft 12 kts 158°
2026-04-26 10:34 43.34452 77.01551 2227 ft 13 kts 155°
2026-04-26 10:34 43.34365 77.01605 2228 ft 14 kts 156°
2026-04-26 10:34 43.34277 77.01658 2228 ft 14 kts 156°
2026-04-26 10:34 43.34210 77.01701 2235 ft 7 kts 149°
2026-04-26 10:35 43.34179 77.01750 2237 ft 9 kts 117°
2026-04-26 10:35 43.34189 77.01855 2234 ft 13 kts 64°
2026-04-26 10:35 43.34239 77.01963 2236 ft 14 kts 56°
2026-04-26 10:35 43.34340 77.02166 2237 ft 46 kts 56°
2026-04-26 10:36 43.34637 77.02769 2238 ft 105 kts 56°
2026-04-26 10:36 43.35138 77.03787 2233 ft 151 kts 56°
2026-04-26 10:36 43.35794 77.05125 2337 ft 182 kts 55°
2026-04-26 10:36 43.36515 77.06572 2945 ft 184 kts 54°
2026-04-26 10:37 43.37264 77.08041 3581 ft 190 kts 55°
2026-04-26 10:37 43.38032 77.09528 4185 ft 195 kts 55°
2026-04-26 10:37 43.38859 77.11128 4469 ft 216 kts 54°
2026-04-26 10:37 43.39835 77.12831 4714 ft 241 kts 44°
2026-04-26 10:38 43.41336 77.13947 5187 ft 255 kts 10°
2026-04-26 10:38 43.43120 77.13688 5742 ft 266 kts 339°
2026-04-26 10:38 43.44825 77.12620 6407 ft 272 kts 333°
2026-04-26 10:38 43.46531 77.11439 7097 ft 277 kts 333°
2026-04-26 10:39 43.48264 77.10258 7826 ft 280 kts 333°
2026-04-26 10:39 43.50025 77.09076 8572 ft 284 kts 332°
2026-04-26 10:39 43.51817 77.07888 9303 ft 288 kts 332°
2026-04-26 10:39 43.53642 77.06694 10046 ft 291 kts 332°
2026-04-26 10:40 43.55511 77.05469 10472 ft 306 kts 332°
2026-04-26 10:40 43.57495 77.04170 10750 ft 325 kts 332°
2026-04-26 10:40 43.59592 77.02800 11013 ft 341 kts 333°
2026-04-26 10:40 43.61786 77.01365 11317 ft 356 kts 333°
2026-04-26 10:41 43.64020 76.99903 11746 ft 364 kts 332°
2026-04-26 10:41 43.66329 76.98392 12258 ft 370 kts 332°
2026-04-26 10:41 43.68673 76.96859 12827 ft 374 kts 332°
2026-04-26 10:41 43.71023 76.95320 13475 ft 375 kts 331°
2026-04-26 10:42 43.73400 76.93759 14003 ft 380 kts 331°
2026-04-26 10:42 43.75793 76.92186 14520 ft 383 kts 331°
2026-04-26 10:42 43.78209 76.90598 15076 ft 385 kts 331°
2026-04-26 10:42 43.80615 76.89015 15617 ft 387 kts 331°
2026-04-26 10:43 43.83058 76.87406 16167 ft 390 kts 332°
2026-04-26 10:43 43.85515 76.85786 16731 ft 392 kts 332°
2026-04-26 10:43 43.87983 76.84158 17333 ft 394 kts 332°
2026-04-26 10:43 43.90460 76.82521 17893 ft 397 kts 332°
2026-04-26 10:44 43.92965 76.80864 18425 ft 400 kts 332°
2026-04-26 10:44 43.95493 76.79191 18936 ft 403 kts 332°
2026-04-26 10:44 43.98030 76.77511 19463 ft 406 kts 332°
2026-04-26 10:44 44.00589 76.75814 19984 ft 409 kts 332°
2026-04-26 10:45 44.03162 76.74106 20514 ft 411 kts 332°
2026-04-26 10:45 44.05754 76.72384 21033 ft 414 kts 332°
2026-04-26 10:45 44.08358 76.70652 21564 ft 416 kts 332°
2026-04-26 10:45 44.10978 76.68907 22076 ft 419 kts 332°
2026-04-26 10:46 44.13613 76.67152 22583 ft 421 kts 332°
2026-04-26 10:46 44.16227 76.65408 23083 ft 424 kts 332°
2026-04-26 10:46 44.18892 76.63629 23559 ft 426 kts 332°
2026-04-26 10:46 44.21579 76.61833 23975 ft 429 kts 332°
2026-04-26 10:47 44.24272 76.60032 24421 ft 430 kts 332°
2026-04-26 10:47 44.26974 76.58222 24849 ft 432 kts 332°
2026-04-26 10:47 44.29692 76.56400 25251 ft 434 kts 332°
2026-04-26 10:47 44.32418 76.54571 25646 ft 437 kts 331°
2026-04-26 10:48 44.35164 76.52732 26055 ft 439 kts 332°
2026-04-26 10:48 44.37963 76.50989 26444 ft 441 kts 334°
2026-04-26 10:48 44.40808 76.49341 26836 ft 444 kts 335°
2026-04-26 10:48 44.43677 76.47722 27206 ft 446 kts 335°
2026-04-26 10:49 44.46559 76.46096 27592 ft 448 kts 335°
2026-04-26 10:49 44.49457 76.44445 27970 ft 450 kts 334°
2026-04-26 10:49 44.52359 76.42771 28316 ft 452 kts 334°
2026-04-26 10:49 44.55271 76.41076 28695 ft 454 kts 334°
2026-04-26 10:50 44.58194 76.39364 29049 ft 457 kts 334°
2026-04-26 10:50 44.60176 76.38198 29281 ft 458 kts 334°
2026-04-26 10:50 44.64084 76.35895 29741 ft 461 kts 334°
2026-04-26 10:50 44.67049 76.34146 30083 ft 464 kts 334°
2026-04-26 10:51 44.70029 76.32386 30372 ft 465 kts 334°
2026-04-26 10:51 44.76024 76.28844 30987 ft 469 kts 334°
2026-04-26 10:51 44.79040 76.27059 31287 ft 470 kts 333°
2026-04-26 10:52 44.82056 76.25274 31749 ft 468 kts 333°
2026-04-26 10:52 44.85051 76.23499 32219 ft 466 kts 333°
2026-04-26 10:52 44.88035 76.21730 32647 ft 464 kts 333°
2026-04-26 10:52 44.91012 76.19961 33091 ft 463 kts 333°
2026-04-26 10:53 44.93940 76.18218 33522 ft 461 kts 333°
2026-04-26 10:53 44.96899 76.16454 33913 ft 461 kts 333°
2026-04-26 10:53 44.99848 76.14695 34259 ft 460 kts 333°
2026-04-26 10:54 45.05722 76.11184 34920 ft 458 kts 333°
2026-04-26 10:54 45.08651 76.09431 35256 ft 457 kts 333°
2026-04-26 10:54 45.11577 76.07677 35574 ft 456 kts 333°
2026-04-26 10:54 45.14408 76.05979 35853 ft 456 kts 333°
2026-04-26 10:55 45.17328 76.04225 36138 ft 456 kts 333°
2026-04-26 10:55 45.20244 76.02471 36450 ft 455 kts 333°
2026-04-26 10:55 45.23161 76.00716 36741 ft 454 kts 333°
2026-04-26 10:55 45.25087 75.99556 36936 ft 454 kts 333°
2026-04-26 10:56 45.28970 75.97214 37343 ft 453 kts 333°
2026-04-26 10:56 45.31873 75.95462 37634 ft 453 kts 333°
2026-04-26 10:56 45.34776 75.93706 37810 ft 455 kts 333°
2026-04-26 10:56 45.37687 75.91943 38089 ft 455 kts 333°
2026-04-26 10:57 45.40598 75.90179 38394 ft 454 kts 333°
2026-04-26 10:57 45.43462 75.88442 38660 ft 453 kts 333°
2026-04-26 10:57 45.46361 75.86682 38881 ft 453 kts 333°
2026-04-26 10:57 45.49258 75.84921 39092 ft 453 kts 333°
2026-04-26 10:58 45.52194 75.83134 39238 ft 454 kts 333°
2026-04-26 10:58 45.55066 75.81383 39416 ft 455 kts 333°
2026-04-26 10:58 45.57973 75.79610 39612 ft 454 kts 333°
2026-04-26 10:58 45.60878 75.77836 39804 ft 454 kts 333°
2026-04-26 10:59 45.63793 75.76053 39913 ft 457 kts 333°
2026-04-26 10:59 45.65766 75.74845 39921 ft 459 kts 333°
2026-04-26 10:59 45.72619 75.70644 39924 ft 460 kts 333°
2026-04-26 11:00 45.78507 75.67036 39930 ft 460 kts 332°
2026-04-26 11:00 45.83435 75.64002 39925 ft 460 kts 332°
2026-04-26 11:01 45.89324 75.60367 39927 ft 461 kts 332°
2026-04-26 11:01 45.95177 75.56747 39927 ft 461 kts 332°
2026-04-26 11:02 46.01066 75.53099 39928 ft 461 kts 332°
2026-04-26 11:02 46.06961 75.49438 39947 ft 462 kts 332°
2026-04-26 11:03 46.12884 75.45749 39933 ft 466 kts 332°
2026-04-26 11:03 46.18836 75.42036 39922 ft 466 kts 332°
2026-04-26 11:04 46.24797 75.38314 39935 ft 466 kts 332°
2026-04-26 11:04 46.30751 75.34614 39935 ft 466 kts 332°
2026-04-26 11:05 46.36708 75.30910 39929 ft 466 kts 332°
2026-04-26 11:05 46.42668 75.27191 39929 ft 466 kts 332°
2026-04-26 11:06 46.48633 75.23457 39936 ft 467 kts 332°
2026-04-26 11:06 46.54609 75.19707 39942 ft 468 kts 332°
2026-04-26 11:07 46.60413 75.16057 39946 ft 468 kts 332°
2026-04-26 11:07 46.66425 75.12267 39949 ft 468 kts 332°
2026-04-26 11:08 46.72403 75.08489 39941 ft 468 kts 332°
2026-04-26 11:08 46.78335 75.04731 39939 ft 468 kts 332°
2026-04-26 11:09 46.84305 75.00940 39941 ft 468 kts 331°
2026-04-26 11:09 46.90286 74.97158 39951 ft 468 kts 333°
2026-04-26 11:10 46.96390 74.93752 39949 ft 470 kts 335°
2026-04-26 11:10 47.02543 74.90483 39961 ft 470 kts 334°
2026-04-26 11:11 47.08674 74.87162 39950 ft 470 kts 334°
2026-04-26 11:11 47.14794 74.83784 39949 ft 470 kts 334°
2026-04-26 11:12 47.20905 74.80385 39948 ft 470 kts 334°
2026-04-26 11:12 47.27017 74.76978 39951 ft 469 kts 333°
2026-04-26 11:13 47.33121 74.73569 39946 ft 469 kts 333°
2026-04-26 11:13 47.39221 74.70155 39946 ft 469 kts 333°
2026-04-26 11:14 47.45280 74.66756 39949 ft 469 kts 333°
2026-04-26 11:14 47.51383 74.63323 39944 ft 469 kts 333°
2026-04-26 11:15 47.57493 74.59891 39951 ft 469 kts 333°
2026-04-26 11:15 47.63605 74.56467 39948 ft 470 kts 333°
2026-04-26 11:16 47.69713 74.53036 39948 ft 470 kts 333°
2026-04-26 11:16 47.75838 74.49586 39952 ft 470 kts 333°
2026-04-26 11:17 47.81922 74.46047 39969 ft 467 kts 328°
2026-04-26 11:17 47.87795 74.41913 39952 ft 467 kts 328°
2026-04-26 11:18 47.93646 74.37706 39955 ft 467 kts 328°
2026-04-26 11:18 47.99485 74.33478 39956 ft 467 kts 327°
2026-04-26 11:19 48.05326 74.29231 39958 ft 468 kts 327°
2026-04-26 11:19 48.11144 74.24989 39958 ft 468 kts 327°
2026-04-26 11:20 48.16050 74.21404 39957 ft 468 kts 327°
2026-04-26 11:20 48.22803 74.16456 39957 ft 468 kts 327°
2026-04-26 11:21 48.28713 74.12113 39960 ft 468 kts 327°
2026-04-26 11:21 48.34566 74.07801 39957 ft 468 kts 327°
2026-04-26 11:22 48.40410 74.03485 39960 ft 468 kts 327°
2026-04-26 11:22 48.46263 73.99149 39962 ft 470 kts 327°
2026-04-26 11:23 48.52139 73.94786 39960 ft 470 kts 327°
2026-04-26 11:23 48.58011 73.90416 39960 ft 470 kts 327°
2026-04-26 11:24 48.63884 73.86032 39966 ft 471 kts 327°
2026-04-26 11:24 48.69769 73.81628 39961 ft 472 kts 327°
2026-04-26 11:25 48.75626 73.77234 39963 ft 473 kts 327°
2026-04-26 11:25 48.81555 73.72774 39991 ft 472 kts 327°
2026-04-26 11:26 48.87412 73.68356 39962 ft 474 kts 327°
2026-04-26 11:26 48.93316 73.63892 39972 ft 474 kts 327°
2026-04-26 11:27 48.99221 73.59415 39982 ft 474 kts 327°
2026-04-26 11:27 49.05128 73.54924 39986 ft 475 kts 327°
2026-04-26 11:28 49.11045 73.50414 39986 ft 476 kts 327°
2026-04-26 11:28 49.16965 73.45889 39988 ft 476 kts 327°
2026-04-26 11:29 49.22884 73.41353 40011 ft 476 kts 327°
2026-04-26 11:29 49.28802 73.36805 39996 ft 476 kts 327°
2026-04-26 11:30 49.33731 73.33009 39999 ft 477 kts 327°
2026-04-26 11:30 49.37689 73.29953 39835 ft 476 kts 327°
2026-04-26 11:30 49.40639 73.27674 39594 ft 473 kts 327°
2026-04-26 11:31 49.43576 73.25401 39389 ft 473 kts 327°
2026-04-26 11:31 49.46515 73.23121 39179 ft 474 kts 327°
2026-04-26 11:31 49.49455 73.20838 38966 ft 472 kts 327°
2026-04-26 11:31 49.52372 73.18573 38617 ft 468 kts 327°
2026-04-26 11:32 49.55272 73.16317 38091 ft 466 kts 327°
2026-04-26 11:32 49.58156 73.14069 37584 ft 463 kts 327°
2026-04-26 11:32 49.60993 73.11856 37149 ft 461 kts 326°
2026-04-26 11:32 49.63883 73.09598 36673 ft 459 kts 326°
2026-04-26 11:33 49.66685 73.07405 36168 ft 457 kts 326°
2026-04-26 11:33 49.69520 73.05182 35640 ft 457 kts 325°
2026-04-26 11:33 49.72351 73.02960 35107 ft 456 kts 325°
2026-04-26 11:33 49.75182 73.00734 34520 ft 457 kts 325°
2026-04-26 11:34 49.78026 72.98495 33847 ft 460 kts 324°
2026-04-26 11:34 49.80891 72.96234 33030 ft 464 kts 324°
2026-04-26 11:34 49.83782 72.93952 32263 ft 467 kts 324°
2026-04-26 11:34 49.86686 72.91656 31485 ft 471 kts 324°
2026-04-26 11:35 49.89617 72.89337 30645 ft 475 kts 324°
2026-04-26 11:35 49.92575 72.86994 29858 ft 478 kts 324°
2026-04-26 11:35 49.95526 72.84660 29258 ft 474 kts 324°
2026-04-26 11:35 49.97464 72.83125 28871 ft 471 kts 324°
2026-04-26 11:36 50.01347 72.80045 28102 ft 466 kts 324°
2026-04-26 11:36 50.04227 72.77752 27515 ft 462 kts 324°
2026-04-26 11:36 50.07077 72.75480 26960 ft 460 kts 323°
2026-04-26 11:36 50.09918 72.73211 26367 ft 457 kts 323°
2026-04-26 11:37 50.12743 72.70952 25792 ft 454 kts 323°
2026-04-26 11:37 50.15545 72.68709 25204 ft 451 kts 323°
2026-04-26 11:37 50.18292 72.66507 24627 ft 449 kts 323°
2026-04-26 11:37 50.21056 72.64289 24050 ft 446 kts 323°
2026-04-26 11:38 50.23847 72.62044 23433 ft 444 kts 323°
2026-04-26 11:38 50.26546 72.59872 22794 ft 441 kts 323°
2026-04-26 11:38 50.29258 72.57687 22212 ft 436 kts 323°
2026-04-26 11:38 50.31940 72.55525 21645 ft 432 kts 323°
2026-04-26 11:39 50.34600 72.53376 21059 ft 428 kts 323°
2026-04-26 11:39 50.37237 72.51243 20502 ft 425 kts 323°
2026-04-26 11:39 50.39852 72.49124 19934 ft 421 kts 322°
2026-04-26 11:39 50.42447 72.47018 19363 ft 418 kts 322°
2026-04-26 11:40 50.45023 72.44926 18837 ft 416 kts 322°
2026-04-26 11:40 50.47583 72.42843 18302 ft 414 kts 322°
2026-04-26 11:40 50.50133 72.40766 17668 ft 411 kts 323°
2026-04-26 11:40 50.52662 72.38705 17109 ft 407 kts 323°
2026-04-26 11:41 50.55165 72.36665 16557 ft 403 kts 323°
2026-04-26 11:42 50.71944 72.22907 12768 ft 374 kts 326°
2026-04-26 11:43 50.74236 72.21020 12219 ft 369 kts 326°
2026-04-26 11:43 50.76499 72.19154 11685 ft 364 kts 326°
2026-04-26 11:43 50.78725 72.17317 11173 ft 358 kts 326°
2026-04-26 11:43 50.80896 72.15527 10983 ft 344 kts 326°
2026-04-26 11:44 50.82949 72.13835 10847 ft 330 kts 326°
2026-04-26 11:44 50.84941 72.12190 10736 ft 316 kts 326°
2026-04-26 11:44 50.86851 72.10609 10603 ft 300 kts 326°
2026-04-26 11:44 50.88630 72.09143 10466 ft 277 kts 325°
2026-04-26 11:45 50.90309 72.07747 10210 ft 271 kts 326°
2026-04-26 11:45 50.91973 72.06352 9919 ft 270 kts 326°
2026-04-26 11:45 50.93629 72.04966 9573 ft 268 kts 326°
2026-04-26 11:45 50.95273 72.03592 9259 ft 266 kts 326°
2026-04-26 11:46 50.96901 72.02234 8962 ft 263 kts 327°
2026-04-26 11:46 50.98510 72.00891 8657 ft 260 kts 327°
2026-04-26 11:46 51.00101 71.99563 8359 ft 257 kts 327°
2026-04-26 11:46 51.01679 71.98244 8048 ft 255 kts 327°
2026-04-26 11:47 51.03239 71.96940 7765 ft 252 kts 328°
2026-04-26 11:47 51.04265 71.96082 7574 ft 250 kts 328°
2026-04-26 11:47 51.05797 71.94800 7282 ft 248 kts 328°
2026-04-26 11:47 51.07316 71.93528 6977 ft 246 kts 328°
2026-04-26 11:48 51.08823 71.92265 6692 ft 243 kts 329°
2026-04-26 11:48 51.10311 71.91018 6437 ft 240 kts 329°
2026-04-26 11:48 51.12220 71.89420 6252 ft 228 kts 328°
2026-04-26 11:48 51.13159 71.88633 6149 ft 222 kts 328°
2026-04-26 11:49 51.14425 71.87329 6030 ft 212 kts 317°
2026-04-26 11:49 51.15480 71.85764 5908 ft 202 kts 313°
2026-04-26 11:49 51.16438 71.84232 5758 ft 187 kts 313°
2026-04-26 11:49 51.17307 71.82830 5590 ft 173 kts 313°
2026-04-26 11:50 51.18133 71.81498 5468 ft 166 kts 313°
2026-04-26 11:50 51.18946 71.80189 5331 ft 162 kts 313°
2026-04-26 11:50 51.19716 71.78937 5194 ft 160 kts 311°
2026-04-26 11:50 51.20313 71.77446 5078 ft 162 kts 291°
2026-04-26 11:51 51.20372 71.75662 4946 ft 166 kts 263°
2026-04-26 11:51 51.19798 71.74037 4826 ft 172 kts 238°
2026-04-26 11:51 51.18958 71.72678 4719 ft 172 kts 233°
2026-04-26 11:51 51.18062 71.71308 4648 ft 183 kts 233°
2026-04-26 11:52 51.17136 71.69892 4592 ft 185 kts 232°
2026-04-26 11:52 51.16216 71.68489 4445 ft 181 kts 233°
2026-04-26 11:52 51.15334 71.67105 4147 ft 177 kts 233°
2026-04-26 11:52 51.14460 71.65724 3842 ft 178 kts 232°
2026-04-26 11:53 51.13571 71.64327 3788 ft 180 kts 231°
2026-04-26 11:53 51.12689 71.62952 3767 ft 172 kts 231°
2026-04-26 11:53 51.11859 71.61662 3575 ft 161 kts 232°
2026-04-26 11:54 51.10390 71.59356 3184 ft 137 kts 232°
2026-04-26 11:54 51.09735 71.58329 2983 ft 128 kts 233°
2026-04-26 11:54 51.09106 71.57339 2824 ft 127 kts 233°
2026-04-26 11:54 51.08476 71.56348 2636 ft 128 kts 232°
2026-04-26 11:55 51.07844 71.55357 2471 ft 127 kts 233°
2026-04-26 11:55 51.07217 71.54375 2285 ft 126 kts 233°
2026-04-26 11:55 51.06590 71.53410 2113 ft 125 kts 232°
2026-04-26 11:55 51.05979 71.52434 1955 ft 124 kts 233°
2026-04-26 11:56 51.05366 71.51491 1775 ft 124 kts 230°
2026-04-26 11:56 51.04763 71.50547 1573 ft 122 kts 230°
2026-04-26 11:56 51.04147 71.49564 1425 ft 130 kts 229°
2026-04-26 11:56 51.03495 71.48569 1255 ft 129 kts 228°
2026-04-26 11:57 51.02882 71.47603 1168 ft 113 kts 225°
2026-04-26 11:57 51.02409 71.46859 1167 ft 81 kts 225°
2026-04-26 11:57 51.02061 71.46314 1165 ft 61 kts 224°
2026-04-26 11:57 51.01802 71.45910 1166 ft 39 kts 224°
2026-04-26 11:58 51.01697 71.45745 1168 ft 10 kts 226°
2026-04-26 11:58 51.01698 71.45653 1168 ft 9 kts 302°
2026-04-26 11:58 51.01748 71.45573 1164 ft 12 kts 315°
2026-04-26 11:58 51.01810 71.45500 1167 ft 8 kts 355°
2026-04-26 11:59 51.01863 71.45542 1164 ft 9 kts 42°
2026-04-26 11:59 51.01921 71.45634 1167 ft 15 kts 44°
2026-04-26 11:59 51.02016 71.45783 1165 ft 21 kts 44°
2026-04-26 11:59 51.02127 71.45956 1164 ft 23 kts 44°
2026-04-26 12:00 51.02245 71.46141 1164 ft 25 kts 44°
2026-04-26 12:00 51.02372 71.46338 1166 ft 26 kts 44°
2026-04-26 12:00 51.02496 71.46531 1167 ft 24 kts 44°
2026-04-26 12:00 51.02580 71.46663 1164 ft 8 kts 44°
2026-04-26 12:01 51.02631 71.46709 1164 ft 9 kts
2026-04-26 12:01 51.02681 71.46664 1164 ft 4 kts 315°
2026-04-26 12:01 51.02685 71.46658 1164 ft 0 kts 314°
2026-04-26 12:02 51.02692 71.46646 1164 ft 4 kts 314°
2026-04-26 12:02 51.02716 71.46624 1167 ft 3 kts 354°
2026-04-26 12:02 51.02744 71.46639 1165 ft 6 kts 28°
2026-04-26 12:02 51.02782 71.46633 1165 ft 5 kts 325°
2026-04-26 12:03 51.02811 71.46589 1164 ft 5 kts 314°
2026-04-26 12:03 51.02825 71.46567 1164 ft 2 kts 314°
2026-04-26 12:03 51.02831 71.46556 1163 ft 1 kts 314°
2026-04-26 12:03 51.02832 71.46555 1163 ft 0 kts 314°